F5OZP-13 Weather Reports


Display with metric or nautical units.
time (UTC)temp
F
wind
direction
speed
MPH
gust
MPH
rain 1hr
in
rain 24hr
in
rain mn
in
humidity
%
barometer
mb
20260503212219 65 0.0 0.0 0.00 0.00 0.00 99 1013.8
20260503211719 65 0.0 0.0 0.00 0.00 0.00 99 1013.9
20260503211202 65 0.0 0.0 0.00 0.00 0.00 99 1013.7
20260503210659 65 0.0 0.0 0.00 0.00 0.00 99 1013.8
20260503210150 65 0.0 0.0 0.00 0.00 0.00 99 1013.8
20260503205642 65 0.0 0.0 0.00 0.00 0.00 99 1013.8
20260503205134 65 0.0 0.0 0.00 0.00 0.00 99 1013.8
20260503204634 65 0.0 0.0 0.00 0.00 0.00 99 1013.8
20260503204118 65 0.0 0.0 0.00 0.00 0.00 99 1013.7
20260503203609 65 0.0 0.0 0.00 0.00 0.00 99 1013.7
20260503203101 65 0.0 0.0 0.00 0.00 0.00 99 1013.7
20260503202553 65 0.0 0.0 0.00 0.00 0.00 99 1013.5
20260503202045 64 0.0 0.0 0.00 0.00 0.00 99 1013.5
20260503201545 64 0.0 0.0 0.00 0.00 0.00 99 1013.3
20260503201028 63 0.0 0.0 0.00 0.00 0.00 99 1013.3
20260503200525 63 0.0 0.0 0.00 0.00 0.00 99 1013.2
20260503200017 63 0.0 0.0 0.00 0.00 0.00 99 1013.1
20260503195509 63 0.0 0.0 0.00 0.00 0.00 99 1013.1
20260503195000 63 0.0 0.0 0.00 0.00 0.00 99 1012.9
20260503194500 63 0.0 0.0 0.00 0.00 0.00 99 1012.8
20260503193944 63 0.0 0.0 0.00 0.00 0.00 99 1012.8
20260503193436 63 0.0 0.0 0.00 0.00 0.00 99 1012.8
20260503192928 63 0.0 0.0 0.00 0.00 0.00 99 1012.8
20260503192420 63 0.0 0.0 0.00 0.00 0.00 99 1012.8
20260503191912 63 0.0 0.0 0.00 0.00 0.00 99 1012.8
20260503191416 63 0.0 0.0 0.00 0.00 0.00 99 1012.7
20260503190859 63 0.0 0.0 0.00 0.00 0.00 99 1012.6
20260503190351 63 0.0 0.0 0.00 0.00 0.00 99 1012.6
20260503185843 63 0.0 0.0 0.00 0.00 0.00 99 1012.6
20260503185335 63 0.0 0.0 0.00 0.00 0.00 99 1012.5
20260503184827 63 0.0 0.0 0.00 0.00 0.00 99 1012.5
20260503184327 63 0.0 0.0 0.00 0.00 0.00 99 1012.4
20260503183811 63 0.0 0.0 0.00 0.00 0.00 99 1012.3
20260503183303 63 0.0 0.0 0.00 0.00 0.00 99 1012.3
20260503182754 63 0.0 0.0 0.00 0.00 0.00 99 1012.3
20260503182246 63 0.0 0.0 0.00 0.00 0.00 99 1012.2
20260503181738 64 0.0 0.0 0.00 0.00 0.00 99 1012.2
20260503181238 64 0.0 0.0 0.00 0.00 0.00 99 1012.2
20260503180726 64 0.0 0.0 0.00 0.00 0.00 99 1012.0
20260503180218 64 0.0 0.0 0.00 0.00 0.00 99 1012.0
20260503175710 64 0.0 0.0 0.00 0.00 0.00 99 1012.0
20260503175202 64 0.0 0.0 0.00 0.00 0.00 99 1012.0
20260503174654 64 0.0 0.0 0.00 0.00 0.00 99 1012.0
20260503174154 64 0.0 0.0 0.00 0.00 0.00 99 1012.0
20260503173638 64 0.0 0.0 0.00 0.00 0.00 99 1012.1
20260503173130 64 0.0 0.0 0.00 0.00 0.00 99 1012.1
20260503172621 64 0.0 0.0 0.00 0.00 0.00 99 1012.1
20260503172113 65 0.0 0.0 0.00 0.00 0.00 99 1012.1
20260503171605 65 0.0 0.0 0.00 0.00 0.00 99 1012.1
20260503171105 65 0.0 0.0 0.00 0.00 0.00 99 1012.1
20260503170553 65 0.0 0.0 0.00 0.00 0.00 99 1012.0
20260503150804 68 0.0 0.0 0.00 0.00 0.00 99 1012.9
20260503150247 68 0.0 0.0 0.00 0.00 0.00 99 1012.9
20260503140120 68 0.0 0.0 0.00 0.00 0.00 99 1013.3
20260503130953 69 0.0 0.0 0.00 0.00 0.00 99 1013.6
20260503130457 69 0.0 0.0 0.00 0.00 0.00 99 1013.6
20260503110647 73 0.0 0.0 0.00 0.00 0.00 99 1014.4
20260503110147 75 0.0 0.0 0.00 0.00 0.00 99 1014.5
20260503090334 76 0.0 0.0 0.00 0.00 0.00 99 1015.0
20260503081213 76 0.0 0.0 0.00 0.00 0.00 99 1015.0
20260503080709 75 0.0 0.0 0.00 0.00 0.00 99 1015.1
20260503080201 76 0.0 0.0 0.00 0.00 0.00 99 1015.2
20260503072612 70 0.0 0.0 0.00 0.00 0.00 99 1015.1
20260503072056 70 0.0 0.0 0.00 0.00 0.00 99 1015.1
20260503071547 70 0.0 0.0 0.00 0.00 0.00 99 1015.0
20260503071039 69 0.0 0.0 0.00 0.00 0.00 99 1015.1
20260503070536 69 0.0 0.0 0.00 0.00 0.00 99 1015.1
20260503054838 62 0.0 0.0 0.00 0.00 0.00 99 1014.6
20260503054330 62 0.0 0.0 0.00 0.00 0.00 99 1014.6
20260503053822 62 0.0 0.0 0.00 0.00 0.00 99 1014.6
20260503053314 62 0.0 0.0 0.00 0.00 0.00 99 1014.6
20260503052806 62 0.0 0.0 0.00 0.00 0.00 99 1014.5
20260503052306 62 0.0 0.0 0.00 0.00 0.00 99 1014.5
20260503051749 62 0.0 0.0 0.00 0.00 0.00 99 1014.6
20260503051241 62 0.0 0.0 0.00 0.00 0.00 99 1014.6
20260503050737 62 0.0 0.0 0.00 0.00 0.00 99 1014.5
20260503050229 62 0.0 0.0 0.00 0.00 0.00 99 1014.5
20260503045721 62 0.0 0.0 0.00 0.00 0.00 99 1014.4
20260503045221 62 0.0 0.0 0.00 0.00 0.00 99 1014.4
20260503044705 62 0.0 0.0 0.00 0.00 0.00 99 1014.4
20260503044156 61 0.0 0.0 0.00 0.00 0.00 99 1014.3
20260503043648 60 0.0 0.0 0.00 0.00 0.00 99 1014.3
20260503043140 61 0.0 0.0 0.00 0.00 0.00 99 1014.4
20260503042632 60 0.0 0.0 0.00 0.00 0.00 99 1014.3
20260503042132 60 0.0 0.0 0.00 0.00 0.00 99 1014.4
20260503041616 61 0.0 0.0 0.00 0.00 0.00 99 1014.4